Flag for Switzerland Weather past 2 weeks in Lancy, Geneva, Switzerland

Now
72 °F

Clear.


Feels Like: 72 °F
Forecast: 59 / 76 °F
Wind: 2 mph from North

Location: Geneva Cointrin Airport

Current Time: Jul 7, 2015 at 7:05:01 AM

Latest Report: Jul 7, 2015 at 6:20 AM


Visibility: 10 mi

Pressure: 30.04 "Hg

Humidity: 78%

Dew point: 64 °F

Location of LancyLocation

Historic Weather in Lancy — Graph

°F

Lancy temperature yesterday

Maximum temperature yesterday: 93 °F (at 5:50 PM)
Minimum temperature yesterday: 72 °F (at 5:50 AM)
Average temperature yesterday: 83 °F

Past Weeks' High & Low Weather Summary

 TemperatureHumidityPressure
High100 °F (Jul 5, 3:50 PM)100% (Jun 22, 5:50 AM)30.27 "Hg (Jun 22, 5:50 AM)
Low48 °F (Jun 24, 3:50 AM)18% (Jul 4, 4:20 PM)29.83 "Hg (Jun 22, 8:50 PM)
Average75 °F52%30.12 "Hg
* Reported Jun 22 5:20 AM — Jul 7 5:50 AM, Lancy, Weather by CustomWeather, © 2015

Note: Actual official high and low records may vary slightly from our data, if they occured in-between our weather recording intervals... More about our weather records

Advertising

Lancy weather history for previous 24 hours

 ConditionsComfort  
Time TempWeatherWind HumidityBarometerVisibility
5:50 AM
Tue, Jul 7
70 °FClear.2 mph88%30.04 "Hg10 mi
5:20 AM70 °FClear.No wind88%30.04 "Hg10 mi
4:50 AM72 °FClear.2 mph83%30.04 "Hg10 mi
4:20 AM72 °FClear.1 mph83%30.04 "Hg10 mi
3:50 AM72 °FClear.1 mph83%30.04 "Hg10 mi
3:20 AM73 °FClear.No wind78%30.04 "Hg10 mi
2:20 AM73 °FClear.1 mph78%30.07 "Hg10 mi
1:50 AM73 °FClear.1 mph78%30.07 "Hg10 mi
1:20 AM75 °FClear.1 mph74%30.07 "Hg10 mi
12:50 AM75 °FClear.1 mph74%30.07 "Hg10 mi
12:20 AM77 °FClear.1 mph69%30.07 "Hg10 mi
11:50 PM
Mon, Jul 6
77 °FClear.2 mph69%30.07 "Hg10 mi
11:20 PM79 °FClear.1 mph65%30.07 "Hg10 mi
10:50 PM79 °FClear.1 mph61%30.07 "Hg10 mi
10:20 PM81 °FSunny.1 mph58%30.07 "Hg10 mi
9:50 PM82 °FSunny.2 mph55%30.04 "Hg10 mi
9:20 PM86 °FSunny.2 mph46%30.04 "Hg10 mi
8:50 PM88 °FSunny.2 mph43%30.04 "Hg10 mi
8:20 PM90 °FSunny.3 mph41%30.04 "Hg10 mi
7:50 PM90 °FSunny.7 mph41%30.04 "Hg10 mi
7:20 PM91 °FPassing clouds.7 mph38%30.04 "HgN/A
6:50 PM93 °FPassing clouds.7 mph36%30.04 "HgN/A
6:20 PM91 °FPassing clouds.6 mph41%30.07 "HgN/A
5:50 PM93 °FPassing clouds.5 mph36%30.07 "HgN/A
5:20 PM91 °FPassing clouds.6 mph38%30.07 "HgN/A
4:50 PM91 °FPassing clouds.7 mph38%30.07 "HgN/A
4:20 PM91 °FPassing clouds.7 mph41%30.09 "HgN/A
3:50 PM91 °FPassing clouds.6 mph38%30.09 "HgN/A
3:20 PM90 °FScattered clouds.8 mph41%30.09 "HgN/A
2:50 PM90 °FScattered clouds.5 mph43%30.09 "HgN/A
2:20 PM90 °FPassing clouds.6 mph43%30.12 "HgN/A
1:50 PM88 °FPassing clouds.8 mph43%30.12 "HgN/A
1:20 PM86 °FPassing clouds.6 mph49%30.12 "HgN/A
12:50 PM86 °FPassing clouds.5 mph49%30.15 "HgN/A
12:20 PM86 °FPassing clouds.7 mph46%30.15 "HgN/A
11:50 AM84 °FPassing clouds.7 mph48%30.15 "HgN/A
11:20 AM84 °FPassing clouds.7 mph51%30.15 "HgN/A
10:50 AM82 °FPassing clouds.8 mph55%30.15 "HgN/A
10:20 AM82 °FPassing clouds.7 mph55%30.15 "HgN/A
9:50 AM81 °FPassing clouds.5 mph58%30.18 "HgN/A
9:20 AM81 °FPassing clouds.6 mph58%30.18 "HgN/A
8:50 AM79 °FPassing clouds.2 mph61%30.18 "HgN/A
8:20 AM79 °FPassing clouds.6 mph61%30.18 "HgN/A
7:50 AM77 °FPassing clouds.5 mph69%30.18 "HgN/A
7:20 AM75 °FPassing clouds.1 mph74%30.18 "HgN/A
Weather by CustomWeather, © 2015

See weather overviewHow to use our weather pages